Bookmark and Share
Track history (hours):
 

Sir Albert

Last reported at 2014-Apr-21 04:12 UTC. Time now 2014-Apr-24 04:22 UTC.
Position N 38°13' W 009°43'.

Length 135 m; draft 5.1 m.

Type: Cargo ship. MMSI: 248832000.

NotesDate/timePositionNaut miles runAvg speedWind from/ knotsBaromVisibWave heightAir tempDewpointWater temp
2014-Apr-21 04:12N 38°13' W 009°43'710.9
2014-Apr-21 03:33N 38°06' W 009°41'1111.1
2014-Apr-21 02:33N 37°56' W 009°37'1110.8
2014-Apr-21 01:34N 37°45' W 009°34'1110.5
2014-Apr-21 00:33N 37°35' W 009°31'58 9.6
2014-Apr-20 18:31N 36°42' W 009°01'1010.4
2014-Apr-20 17:33N 36°39' W 008°49'9 9.6
2014-Apr-20 16:33N 36°36' W 008°38'1210.7
2014-Apr-20 15:28N 36°32' W 008°24'13810.4
2014-Apr-20 02:08N 35°58' W 005°38'6 9.7
2014-Apr-20 01:33N 35°59' W 005°32'8 7.6
2014-Apr-20 00:33N 36°03' W 005°24'2 2.4
2014-Apr-19 23:33N 36°05' W 005°25'0 0.0
2014-Apr-19 22:32N 36°05' W 005°25'0 0.0
2014-Apr-19 21:32N 36°05' W 005°25'0 0.0
2014-Apr-19 20:32N 36°05' W 005°25'1 1.2
2014-Apr-19 19:33N 36°05' W 005°24'6 6.2
2014-Apr-19 18:33N 36°07' W 005°16'3 3.3
2014-Apr-19 17:33N 36°05' W 005°20'10 9.7
2014-Apr-19 16:33N 36°06' W 005°08'17910.2
2014-Apr-18 23:06N 36°31' W 001°28'35 9.4
2014-Apr-18 19:19N 36°35' W 000°44'3611.0
2014-Apr-18 16:04N 36°39' W 000°00'3111.3
2014-Apr-18 13:21N 36°43' E 000°38'2211.3
2014-Apr-18 11:22N 36°45' E 001°06'911.3
2014-Apr-18 10:33N 36°47' E 001°17'1110.9
2014-Apr-18 09:33N 36°48' E 001°31'1110.7
2014-Apr-18 08:33N 36°49' E 001°44'1010.3
2014-Apr-18 07:33N 36°50' E 001°57'2310.8
2014-Apr-18 05:24N 36°53' E 002°25'910.5
2014-Apr-18 04:33N 36°54' E 002°36'1010.4
2014-Apr-18 03:33N 36°56' E 002°49'1110.7
2014-Apr-18 02:33N 36°57' E 003°03'1111.1
2014-Apr-18 01:32N 36°58' E 003°17'1111.1
2014-Apr-18 00:33N 36°59' E 003°30'1110.9
2014-Apr-17 23:33N 37°01' E 003°44'1111.1
2014-Apr-17 22:33N 37°02' E 003°57'1211.8
2014-Apr-17 21:33N 37°03' E 004°12'  

Dump ship's entire track history

sailing weather and tide predictions

Sir Albert — 9HA2536 — position and weather